{"data":{"norad_id":63092,"intl_designator":"2025-037R","name":"STARLINK-32924","alt_names":[],"object_type":"PAYLOAD","status":"ACTIVE","operator":null,"country":"US","launch_date":"2025-02-23","launch_site_code":"AFWTR","launch_vehicle":null,"mission":null,"orbit_class":"UNKNOWN","rcs_meters":null,"size_class":null,"mass_kg":null,"dimensions":null,"purposes":["comms"],"wikipedia_slug":null,"has_3d_model":false,"image_url":null,"decayed_at":null,"tle_current":{"epoch":"2026-09-21T14:33:50.010912Z","epoch_age_seconds":66695,"freshness":"FRESH","line1":"1 63092U 25037R   26264.60682883  .00006195  00000+0  21980-3 0  9991","line2":"2 63092  70.0022 217.8847 0002652 272.8824  87.2048 15.29577039 88012","mean_motion":15.29577039,"eccentricity":0.0002652,"inclination_deg":70.0022,"raan_deg":217.8847,"arg_perigee_deg":272.8824,"mean_anomaly_deg":87.2048,"bstar":0.0002198,"rev_number":8801,"period_min":94.14367261563,"perigee_km":475.25774752152,"apogee_km":478.89375236409,"semimajor_km":6855.2127499428,"source":"CELESTRAK","updated_at":"2026-09-22T09:00:49.760670Z"}}}